Weather History for KCKN - August, 2013

Change the Weather History Date:

Thursday, August 22, 2013

  Actual Average Record
Temperature  
Mean Temperature 62 °F -  
Max Temperature 78 °F 76 °F 91 °F (2012)
Min Temperature 46 °F 52 °F 46 °F (1996)
Degree Days  
Heating Degree Days 3    
Growing Degree Days 12 (Base 50)    
Moisture  
Dew Point 46 °F    
Average Humidity 55    
Maximum Humidity 93    
Minimum Humidity 30    
Precipitation  
Precipitation 0.00 in - - ()
Sea Level Pressure  
Sea Level Pressure 30.17 in    
Wind  
Wind Speed 4 mph (NNE)    
Max Wind Speed 13 mph    
Max Gust Speed -    
Visibility 10 miles    
Events      
Averages and records for this station are not official NWS values.
T = Trace of Precipitation, MM = Missing Value Source: NWS Daily Summary

Daily Weather History Graph

Daily Weather History Graph

Search for Another Location

Airport or City:

Trip Planner

Search our weather history database for the weather conditions in past years. The results will help you decide how hot, cold, wet, or windy it might be!

Date:

Astronomy

Aug. 22, 2013 Rise Set
Actual Time 6:31 AM CDT 8:26 PM CDT
Civil Twilight 5:58 AM CDT 8:59 PM CDT
Nautical Twilight 5:17 AM CDT 9:39 PM CDT
Astronomical Twilight 4:32 AM CDT 10:24 PM CDT
Moon 8:55 PM CDT 8:34 AM CDT
Length of Visible Light 15h 00m
Length of Day
13h 54m
Waning Gibbous, 96% of the Moon is Illuminated
Aug 22
Waning Gibbous
Aug 28
Last Quarter
Sep 5
New
Sep 12
First Quarter
Sep 19
Full

Hourly Weather History & Observations

Time (CDT) Temp. Windchill Dew Point Humidity Pressure Visibility Wind Dir Wind Speed Gust Speed Precip Events Conditions
12:14 AM 64.4 °F - 50.0 °F 59% 30.11 in 10.0 mi North 4.6 mph - N/A   Overcast
12:35 AM 66.2 °F - 48.2 °F 52% 30.11 in 10.0 mi North 8.1 mph - N/A   Mostly Cloudy
12:54 AM 66.2 °F - 48.2 °F 52% 30.12 in 10.0 mi North 6.9 mph - N/A   Overcast
1:14 AM 64.4 °F - 50.0 °F 59% 30.13 in 10.0 mi North 5.8 mph - N/A   Mostly Cloudy
1:35 AM 64.4 °F - 50.0 °F 59% 30.13 in 10.0 mi North 4.6 mph - N/A   Mostly Cloudy
1:54 AM 62.6 °F - 51.8 °F 68% 30.14 in 10.0 mi NNE 3.5 mph - N/A   Scattered Clouds
2:15 AM 62.6 °F - 50.0 °F 63% 30.14 in 10.0 mi Calm Calm - N/A   Clear
2:34 AM 60.8 °F - 50.0 °F 68% 30.14 in 10.0 mi Calm Calm - N/A   Clear
2:54 AM 59.0 °F - 50.0 °F 72% 30.15 in 10.0 mi NNE 5.8 mph - N/A   Clear
3:15 AM 57.2 °F - 48.2 °F 72% 30.15 in 10.0 mi NNE 5.8 mph - N/A   Clear
3:34 AM 57.2 °F - 48.2 °F 72% 30.16 in 10.0 mi NNE 4.6 mph - N/A   Clear
3:55 AM 55.4 °F - 48.2 °F 77% 30.16 in 10.0 mi Calm Calm - N/A   Clear
4:14 AM 53.6 °F - 48.2 °F 82% 30.17 in 10.0 mi Calm Calm - N/A   Clear
4:34 AM 51.8 °F - 46.4 °F 82% 30.18 in 10.0 mi Calm Calm - N/A   Clear
4:55 AM 48.2 °F - 44.6 °F 87% 30.18 in 10.0 mi Calm Calm - N/A   Clear
5:14 AM 50.0 °F - 46.4 °F 87% 30.17 in 10.0 mi NW 3.5 mph - N/A   Clear
5:35 AM 48.2 °F - 44.6 °F 87% 30.18 in 10.0 mi NNW 3.5 mph - N/A   Clear
5:54 AM 48.2 °F - 44.6 °F 87% 30.18 in 10.0 mi Calm Calm - N/A   Clear
6:15 AM 48.2 °F - 44.6 °F 87% 30.18 in 10.0 mi NNW 3.5 mph - N/A   Clear
6:34 AM 48.2 °F - 44.6 °F 87% 30.19 in 10.0 mi Calm Calm - N/A   Clear
6:54 AM 46.4 °F 45.2 °F 44.6 °F 93% 30.19 in 10.0 mi NNW 3.5 mph - N/A   Clear
7:15 AM 46.4 °F 45.2 °F 44.6 °F 93% 30.20 in 10.0 mi NNW 3.5 mph - N/A   Clear
7:34 AM 48.2 °F - 46.4 °F 93% 30.20 in 10.0 mi Calm Calm - N/A   Clear
7:55 AM 51.8 °F - 46.4 °F 82% 30.20 in 10.0 mi NNW 3.5 mph - N/A   Clear
8:14 AM 55.4 °F - 48.2 °F 77% 30.21 in 10.0 mi North 3.5 mph - N/A   Clear
8:34 AM 57.2 °F - 48.2 °F 72% 30.21 in 10.0 mi North 3.5 mph - N/A   Clear
8:55 AM 59.0 °F - 48.2 °F 67% 30.21 in 10.0 mi Calm Calm - N/A   Clear
9:14 AM 60.8 °F - 48.2 °F 63% 30.21 in 10.0 mi North 4.6 mph - N/A   Clear
9:35 AM 64.4 °F - 48.2 °F 56% 30.21 in 10.0 mi North 4.6 mph - N/A   Clear
9:54 AM 66.2 °F - 48.2 °F 52% 30.21 in 10.0 mi North 4.6 mph - N/A   Clear
10:14 AM 68.0 °F - 48.2 °F 49% 30.21 in 10.0 mi NNE 3.5 mph - N/A   Clear
10:35 AM 69.8 °F - 48.2 °F 46% 30.21 in 10.0 mi NNE 3.5 mph - N/A   Clear
10:54 AM 71.6 °F - 48.2 °F 43% 30.21 in 10.0 mi North 4.6 mph - N/A   Clear
11:15 AM 71.6 °F - 46.4 °F 41% 30.21 in 10.0 mi North 8.1 mph - N/A   Clear
11:34 AM 73.4 °F - 42.8 °F 33% 30.21 in 10.0 mi NNE 8.1 mph - N/A   Clear
11:54 AM 73.4 °F - 44.6 °F 36% 30.20 in 10.0 mi NNW 9.2 mph - N/A   Clear
12:14 PM 75.2 °F - 42.8 °F 31% 30.20 in 10.0 mi NNE 12.7 mph - N/A   Clear
12:34 PM 75.2 °F - 44.6 °F 34% 30.20 in 10.0 mi NW 6.9 mph - N/A   Clear
12:55 PM 75.2 °F - 44.6 °F 34% 30.19 in 10.0 mi North 6.9 mph - N/A   Clear
1:14 PM 75.2 °F - 44.6 °F 34% 30.19 in 10.0 mi NNE 9.2 mph - N/A   Clear
1:34 PM 75.2 °F - 42.8 °F 31% 30.19 in 10.0 mi NE 5.8 mph - N/A   Clear
1:54 PM 75.2 °F - 44.6 °F 34% 30.19 in 10.0 mi North 6.9 mph - N/A   Clear
2:14 PM 75.2 °F - 44.6 °F 34% 30.18 in 10.0 mi North 9.2 mph - N/A   Clear
2:35 PM 77.0 °F - 44.6 °F 32% 30.18 in 10.0 mi NW 6.9 mph - N/A   Clear
2:54 PM 77.0 °F - 44.6 °F 32% 30.18 in 10.0 mi NNE 8.1 mph - N/A   Clear
3:14 PM 77.0 °F - 44.6 °F 32% 30.17 in 10.0 mi Calm Calm - N/A   Clear
3:35 PM 78.8 °F - 44.6 °F 30% 30.17 in 10.0 mi NNW 8.1 mph - N/A   Clear
3:54 PM 77.0 °F - 44.6 °F 32% 30.16 in 10.0 mi ENE 4.6 mph - N/A   Clear
4:15 PM 78.8 °F - 44.6 °F 30% 30.16 in 10.0 mi North 8.1 mph - N/A   Clear
4:34 PM 78.8 °F - 44.6 °F 30% 30.15 in 10.0 mi North 9.2 mph - N/A   Clear
4:54 PM 77.0 °F - 44.6 °F 32% 30.15 in 10.0 mi Calm Calm - N/A   Clear
5:14 PM 78.8 °F - 44.6 °F 30% 30.15 in 10.0 mi North 4.6 mph - N/A   Clear
5:34 PM 78.8 °F - 44.6 °F 30% 30.14 in 10.0 mi North 6.9 mph - N/A   Clear
5:55 PM 77.0 °F - 44.6 °F 32% 30.14 in 10.0 mi NW 4.6 mph - N/A   Clear
6:14 PM 77.0 °F - 44.6 °F 32% 30.14 in 10.0 mi NNE 6.9 mph - N/A   Clear
6:34 PM 77.0 °F - 44.6 °F 32% 30.13 in 10.0 mi North 6.9 mph - N/A   Clear
6:55 PM 77.0 °F - 44.6 °F 32% 30.13 in 10.0 mi ENE 3.5 mph - N/A   Clear
7:14 PM 75.2 °F - 44.6 °F 34% 30.13 in 10.0 mi NE 3.5 mph - N/A   Clear
7:35 PM 75.2 °F - 44.6 °F 34% 30.13 in 10.0 mi Calm Calm - N/A   Clear
7:54 PM 73.4 °F - 44.6 °F 36% 30.13 in 10.0 mi Calm Calm - N/A   Clear
8:14 PM 73.4 °F - 44.6 °F 36% 30.12 in 10.0 mi ENE 3.5 mph - N/A   Clear
8:35 PM 71.6 °F - 46.4 °F 41% 30.13 in 10.0 mi East 3.5 mph - N/A   Clear
8:54 PM 69.8 °F - 46.4 °F 43% 30.13 in 10.0 mi East 4.6 mph - N/A   Clear
9:14 PM 69.8 °F - 46.4 °F 43% 30.14 in 10.0 mi ESE 5.8 mph - N/A   Clear
9:35 PM 66.2 °F - 46.4 °F 49% 30.14 in 10.0 mi ESE 5.8 mph - N/A   Clear
9:54 PM 66.2 °F - 48.2 °F 52% 30.14 in 10.0 mi ESE 5.8 mph - N/A   Clear
10:14 PM 59.0 °F - 48.2 °F 67% 30.14 in 10.0 mi ESE 4.6 mph - N/A   Clear
10:35 PM 55.4 °F - 48.2 °F 77% 30.14 in 10.0 mi SE 5.8 mph - N/A   Clear
10:54 PM 57.2 °F - 48.2 °F 72% 30.14 in 10.0 mi SE 4.6 mph - N/A   Clear
11:15 PM 57.2 °F - 48.2 °F 72% 30.14 in 10.0 mi SE 4.6 mph - N/A   Clear
11:35 PM 57.2 °F - 48.2 °F 72% 30.14 in 10.0 mi SE 5.8 mph - N/A   Clear
11:54 PM 53.6 °F - 46.4 °F 77% 30.14 in 10.0 mi SE 5.8 mph - N/A   Clear